SCP
0 0 0 0 0 0 0 0 0 0 0 0 0 0 0 0 0 0 0 0 0 0
0 0 0 0 0 0 0 0 0 0 0 0 0 0 0 0 0 0 0 0 0 0
0 0 0 0 0 0 0 0 0 0 0 0 0 0 0 0 0 0 0 0 0 0
0 0 0 0 0 0 0 0 0 0 0 0 0 0 0 0 0 0 0 0 0 0
0 0 0 0 0 0 0 0 0 0 0 0 0 0 0 0 0 0 0 0 0 0
0 0 0 0 0 0 0 0 0 0 0 0 0 0 0 0 0 0 0 0 0 0
0 0 0 0 0 0 0 0 0 0 0 0 0 0 0 0 0 0 0 0 0 0
0 0 0 0 0 0 0 0 0 0 0 0 0 0 0 0 0 0 0 0 0 0
0 0 0 0 0 0 0 0 0 0 0 0 0 0 0 0 0 0 0 0 0 0
0 0 0 0 0 0 0 0 0 0 0 0 0 0 0 0 0 0 0 0 0 0
0 0 0 0 0 0 0 0 0 0 0 0 0 0 0 0 0 0 0 0 0 0
0 0 0 0 0 0 0 0 0 0 0 0 0 0 0 0 0 0 0 0 0 0
0 0 0 0 0 0 0 0 0 0 0 0 0 0 0 0 0 0 0 0 0 0
0 0 0 0 0 0 0 0 0 0 0 0 0 0 0 0 0 0 0 0 0 0
Wind_Speed_500mb
22 25 28 30 33 35 38 41 42 43 44 45 47 48 50 52 53 53 53 53 54 55
26 27 30 31 34 35 36 37 41 42 45 48 49 52 52 56 58 58 58 58 59 61
30 31 31 32 33 35 37 38 39 42 43 45 48 51 51 51 55 57 57 58 61 63
27 27 28 29 30 32 35 36 38 40 42 44 47 48 51 51 53 55 55 57 61 64
23 24 27 28 28 29 31 35 35 36 39 40 42 45 47 48 48 50 52 53 56 59
24 26 27 28 29 30 31 29 30 32 34 37 42 45 47 49 51 51 51 51 53 56
26 27 28 29 27 26 24 26 29 32 36 39 42 47 53 55 53 53 53 53 54 55
31 32 27 21 17 17 22 29 34 38 40 43 45 47 50 55 56 54 54 54 55 56
33 29 21 16 15 20 25 29 33 37 39 42 45 47 50 54 59 58 59 61 59 58
29 23 17 13 14 18 22 27 33 39 44 47 50 52 54 57 59 59 58 58 60 60
25 20 16 14 16 21 27 33 39 44 49 54 54 56 57 57 57 58 57 57 58 59
24 22 20 20 22 26 32 37 42 48 52 56 57 57 57 54 54 54 53 56 50 61
30 27 25 25 28 31 37 43 48 52 54 56 57 55 53 42 51 48 51 50 51 59
32 30 29 30 33 37 42 47 51 54 56 55 53 50 48 45 44 47 46 54 57 56
Wind_Direction_500mb
12 3 359 354 350 346 345 345 343 343 341 340 340 341 341 340 340 339 338 335 333 331
358 354 353 350 347 345 344 343 343 342 340 340 340 339 340 340 339 339 339 335 333 331
351 348 346 343 340 340 339 339 338 336 336 338 338 336 338 340 338 336 337 335 332 330
339 338 336 335 335 335 336 335 340 337 339 341 338 339 341 345 342 340 340 337 335 333
331 333 334 332 335 338 337 341 337 339 344 342 342 346 349 352 350 348 347 345 340 337
332 333 333 336 337 340 346 342 348 352 352 350 349 350 349 353 354 352 350 346 341 337
328 333 332 336 342 346 349 354 356 356 355 352 350 348 346 344 344 343 341 339 334 331
329 331 332 336 342 351 356 358 356 354 350 345 343 340 336 332 335 335 333 332 331 329
322 322 323 329 338 348 352 351 348 344 341 338 335 334 332 330 327 331 331 330 328 327
309 304 301 308 327 337 341 343 341 339 337 336 334 332 330 327 324 324 326 327 328 327
295 283 282 294 314 328 335 336 336 335 334 332 331 328 325 323 322 322 324 328 329 328
290 281 282 295 310 319 323 325 327 330 330 328 327 324 323 322 320 320 321 324 323 322
287 280 281 292 302 310 317 321 324 325 325 324 322 321 321 322 316 319 316 324 314 317
278 274 279 291 298 306 311 316 319 320 321 321 321 320 320 320 318 317 320 311 314 316
Wind_Speed_850mb
22 25 28 30 33 35 38 41 42 43 44 45 47 48 50 52 53 53 53 53 54 55
26 27 30 31 34 35 36 37 41 42 45 48 49 52 52 56 58 58 58 58 59 61
30 31 31 32 33 35 37 38 39 42 43 45 48 51 51 51 55 57 57 58 61 63
27 27 28 29 30 32 35 36 38 40 42 44 47 48 51 51 53 55 55 57 61 64
23 24 27 28 28 29 31 35 35 36 39 40 42 45 47 48 48 50 52 53 56 59
24 26 27 28 29 30 31 29 30 32 34 37 42 45 47 49 51 51 51 51 53 56
26 27 28 29 27 26 24 26 29 32 36 39 42 47 53 55 53 53 53 53 54 55
31 32 27 21 17 17 22 29 34 38 40 43 45 47 50 55 56 54 54 54 55 56
33 29 21 16 15 20 25 29 33 37 39 42 45 47 50 54 59 58 59 61 59 58
29 23 17 13 14 18 22 27 33 39 44 47 50 52 54 57 59 59 58 58 60 60
25 20 16 14 16 21 27 33 39 44 49 54 54 56 57 57 57 58 57 57 58 59
24 22 20 20 22 26 32 37 42 48 52 56 57 57 57 54 54 54 53 56 50 61
30 27 25 25 28 31 37 43 48 52 54 56 57 55 53 42 51 48 51 50 51 59
32 30 29 30 33 37 42 47 51 54 56 55 53 50 48 45 44 47 46 54 57 56
Wind_Direction_850mb
12 3 359 354 350 346 345 345 343 343 341 340 340 341 341 340 340 339 338 335 333 331
358 354 353 350 347 345 344 343 343 342 340 340 340 339 340 340 339 339 339 335 333 331
351 348 346 343 340 340 339 339 338 336 336 338 338 336 338 340 338 336 337 335 332 330
339 338 336 335 335 335 336 335 340 337 339 341 338 339 341 345 342 340 340 337 335 333
331 333 334 332 335 338 337 341 337 339 344 342 342 346 349 352 350 348 347 345 340 337
332 333 333 336 337 340 346 342 348 352 352 350 349 350 349 353 354 352 350 346 341 337
328 333 332 336 342 346 349 354 356 356 355 352 350 348 346 344 344 343 341 339 334 331
329 331 332 336 342 351 356 358 356 354 350 345 343 340 336 332 335 335 333 332 331 329
322 322 323 329 338 348 352 351 348 344 341 338 335 334 332 330 327 331 331 330 328 327
309 304 301 308 327 337 341 343 341 339 337 336 334 332 330 327 324 324 326 327 328 327
295 283 282 294 314 328 335 336 336 335 334 332 331 328 325 323 322 322 324 328 329 328
290 281 282 295 310 319 323 325 327 330 330 328 327 324 323 322 320 320 321 324 323 322
287 280 281 292 302 310 317 321 324 325 325 324 322 321 321 322 316 319 316 324 314 317
278 274 279 291 298 306 311 316 319 320 321 321 321 320 320 320 318 317 320 311 314 316